Dothan, AL

8:11 AM CDT on April 26, 2017 (GMT -0500)
Dothan Regional

Weather History for KDHN - November, 2011

Change the Weather History Date:

Saturday, November 19, 2011

  Actual Average Record
Temperature  
Mean Temperature 57 °F 58 °F  
Max Temperature 66 °F 70 °F 83 °F (1942)
Min Temperature 48 °F 45 °F 20 °F (2014)
Degree Days  
Heating Degree Days 8 8  
Month to date heating degree days 113  
Since 1 July heating degree days 172  
Growing Degree Days 7 (Base 50)    
Moisture  
Dew Point 53 °F    
Average Humidity 83    
Maximum Humidity 100    
Minimum Humidity 65    
Precipitation  
Precipitation 0.13 in 0.16 in 1.64 in (1952)
Month to date precipitation 2.28  
Year to date precipitation 47.67  
Sea Level Pressure  
Sea Level Pressure 30.28 in    
Wind  
Wind Speed 7 mph (East)    
Max Wind Speed 12 mph    
Max Gust Speed -    
Visibility 8 miles    
Events Rain    
T = Trace of Precipitation, MM = Missing Value Source: NWS Daily Summary

Daily Weather History Graph

Daily Weather History Graph

Search for Another Location

Airport or City:

Trip Planner

Search our weather history database for the weather conditions in past years. The results will help you decide how hot, cold, wet, or windy it might be!

Date:

Astronomy

Nov. 19, 2011 Rise Set
Actual Time 6:12 AM CST 4:41 PM CST
Civil Twilight 5:46 AM CST 5:07 PM CST
Nautical Twilight 5:17 AM CST 5:36 PM CST
Astronomical Twilight 4:48 AM CST 6:05 PM CST
Moon No Moon Rise 12:37 PM CST (11/19)
Length of Visible Light 11h 20m
Length of Day
10h 29m
Last Quarter, 38% of the Moon is Illuminated
Nov 19
Last Quarter
Nov 25
New
Dec 2
First Quarter
Dec 10
Full
Dec 17
Last Quarter

Hourly Weather History & Observations

Time (CST) Temp. Dew Point Humidity Pressure Visibility Wind Dir Wind Speed Gust Speed Precip Events Conditions
12:53 AM 48.9 °F 42.1 °F 77% 30.29 in 10.0 mi East 6.9 mph - N/A   Partly Cloudy
1:53 AM 48.9 °F 42.1 °F 77% 30.29 in 10.0 mi East 9.2 mph - N/A   Mostly Cloudy
2:53 AM 48.9 °F 44.1 °F 83% 30.28 in 10.0 mi East 9.2 mph - N/A   Partly Cloudy
3:53 AM 48.0 °F 44.1 °F 86% 30.28 in 10.0 mi East 10.4 mph - N/A   Partly Cloudy
4:53 AM 48.0 °F 44.1 °F 86% 30.29 in 10.0 mi East 10.4 mph - N/A   Clear
5:53 AM 48.0 °F 44.1 °F 86% 30.31 in 10.0 mi East 9.2 mph - N/A   Overcast
6:53 AM 48.9 °F 44.1 °F 83% 30.31 in 10.0 mi East 10.4 mph - N/A   Overcast
7:53 AM 51.1 °F 46.0 °F 83% 30.32 in 10.0 mi East 10.4 mph - N/A   Mostly Cloudy
8:53 AM 55.0 °F 48.0 °F 77% 30.33 in 10.0 mi ESE 8.1 mph - N/A   Mostly Cloudy
9:53 AM 59.0 °F 50.0 °F 72% 30.33 in 10.0 mi East 11.5 mph - N/A   Mostly Cloudy
10:53 AM 61.0 °F 52.0 °F 72% 30.31 in 10.0 mi East 5.8 mph - N/A   Overcast
11:53 AM 64.9 °F 53.1 °F 65% 30.28 in 10.0 mi East 4.6 mph - 0.00 in   Overcast
12:53 PM 66.0 °F 54.0 °F 65% 30.25 in 10.0 mi East 8.1 mph - N/A   Overcast
1:53 PM 66.9 °F 55.0 °F 66% 30.24 in 10.0 mi SE 5.8 mph - N/A   Overcast
2:53 PM 66.2 °F 57.2 °F 73% 30.23 in 10.0 mi ENE 3.5 mph - N/A   Overcast
3:53 PM 66.9 °F 57.9 °F 73% 30.24 in 10.0 mi Calm Calm - N/A   Overcast
4:53 PM 64.9 °F 59.0 °F 81% 30.25 in 10.0 mi SSE 4.6 mph - 0.00 in   Overcast
5:53 PM 62.1 °F 60.1 °F 93% 30.26 in 4.0 mi Calm Calm - 0.05 in Rain Light Rain
6:53 PM 62.6 °F 60.8 °F 94% 30.28 in 6.0 mi Calm Calm - N/A Rain Light Rain
7:53 PM 62.1 °F 61.0 °F 96% 30.28 in 3.0 mi Calm Calm - 0.02 in Rain Light Rain
8:53 PM 62.1 °F 61.0 °F 96% 30.27 in 3.0 mi East 3.5 mph - 0.01 in Rain Light Rain
9:53 PM 62.1 °F 61.0 °F 96% 30.27 in 6.0 mi Calm Calm - 0.01 in   Overcast
10:53 PM 62.6 °F 60.8 °F 94% 30.27 in 9.0 mi ESE 4.6 mph - N/A   Overcast
11:43 PM 62.6 °F 62.6 °F 100% 30.27 in 2.0 mi ESE 9.2 mph - 0.03 in Rain Heavy Rain
11:53 PM 63.0 °F 62.1 °F 97% 30.27 in 5.0 mi ESE 5.8 mph - 0.04 in Rain Rain